Back to catalog

COSMOS 1924

AliveNavigationLEO
NORAD 18937·PAYLOAD·🇷🇺 Russia

Launched Mar 11, 1988 from Plesetsk Cosmodrome

Loading…

Next Passes (next 24 hours)

TLE

FreshSource: Space-Track

Epoch: Sep 14, 2026, 13:20 UTC

1 18937U 88016A   26257.55559187 -.00000010  00000-0  39196-4 0  9992
2 18937  74.0092  11.1576 0035061 265.2508 107.0414 12.44623359749798

Track COSMOS 1924 in real time with AllMySat

Download on the App Store